Wind_Speed
7 8 5 3 2 2 2 2 1 2 1 5 4 3 4 4 8 9 10 9 6 5 3 7 9 5 4 7 9 9 9 4 1 1 5 6 12 12 9 12 14 14 16 14 14 18 19 18 17 17 18 19 20 21 22 21 22 23 22 22 22 23 22 21 21 21 20 20 19 19 19 19 18 18 17 16 15 14 14 15 16 15 15 15 14 14 13 13 12 11 10 10 11 11 11 10 11
8 9 6 4 0 3 1 1 1 2 3 7 4 3 4 5 8 10 11 8 6 7 7 9 9 8 8 10 9 6 9 8 4 6 9 15 17 10 12 15 14 16 18 16 14 15 17 19 18 18 19 20 21 22 23 22 22 22 22 22 22 23 22 21 21 20 20 19 19 19 19 18 17 17 16 16 15 14 13 14 15 14 14 14 13 13 12 11 11 11 10 10 10 9 9 9 9
8 9 6 3 1 1 0 1 2 2 5 7 4 3 3 6 8 8 8 8 10 12 12 10 9 7 5 8 5 4 5 6 10 12 12 19 16 12 15 14 14 17 18 17 15 14 14 18 19 19 21 20 20 22 23 23 22 22 22 22 22 22 22 21 20 20 19 19 19 18 18 17 17 16 15 15 15 14 13 13 14 14 13 13 12 12 11 11 11 10 10 9 9 8 8 7 7
8 8 5 1 1 1 0 1 2 2 5 4 4 3 2 6 7 7 8 12 14 13 11 8 6 4 4 8 5 6 7 6 10 11 13 16 15 17 17 14 16 17 18 18 15 15 14 18 19 19 21 20 20 21 22 23 22 21 21 22 22 21 21 20 20 19 19 19 18 18 17 17 16 15 15 14 15 14 13 13 13 14 13 13 12 11 11 10 10 9 9 8 8 7 6 6 5
8 7 2 3 1 1 1 2 1 2 5 2 4 4 4 7 9 10 10 10 9 9 9 6 5 4 7 8 2 3 7 8 9 9 13 16 18 22 19 17 18 16 18 18 17 18 17 20 22 20 22 21 20 21 23 23 21 21 21 21 21 20 20 19 19 19 19 19 17 17 16 16 15 15 14 14 13 13 13 13 13 13 13 13 12 11 10 9 9 8 8 7 6 5 5 5 4
7 5 1 3 1 0 0 3 3 5 4 1 4 5 6 9 10 13 10 8 7 7 7 6 7 7 8 8 6 5 5 7 10 9 13 19 21 23 22 21 18 15 17 18 19 21 21 22 23 23 23 21 20 21 22 22 21 21 21 21 21 21 20 19 19 18 18 18 17 16 15 15 14 14 13 12 12 12 12 12 12 12 12 11 11 10 9 8 7 7 6 6 5 4 4 4 3
5 2 1 1 1 0 1 4 4 5 3 1 4 8 9 10 10 11 10 8 8 8 7 8 9 9 8 4 7 7 4 7 11 12 15 21 23 22 23 23 20 17 16 17 19 21 22 22 23 23 23 21 21 22 22 21 20 20 20 20 19 19 19 18 18 17 17 17 17 16 15 15 14 13 13 12 12 12 11 11 11 10 10 10 10 9 8 7 6 5 5 4 4 3 2 2 2
2 1 1 1 1 1 1 3 3 4 3 2 7 9 11 11 9 7 8 6 6 8 8 8 7 8 7 3 5 6 7 9 12 16 19 23 23 22 22 22 22 19 18 17 17 19 20 20 22 22 22 22 21 21 21 19 19 20 19 18 17 17 18 18 17 17 16 16 16 16 15 14 14 13 13 12 12 11 10 10 10 10 10 9 8 8 7 6 5 4 3 3 2 2 1 1 1
1 2 1 0 2 2 1 2 3 3 3 6 9 9 9 10 7 6 8 8 9 8 5 4 3 5 9 9 8 6 8 13 17 21 22 23 22 21 21 20 21 21 20 19 18 18 18 19 21 21 20 21 21 21 19 18 18 19 18 17 16 16 17 17 16 16 16 16 15 15 14 14 13 13 12 12 11 10 10 10 10 9 8 7 7 6 5 4 4 3 3 2 2 1 1 1 1
1 2 0 1 1 2 2 2 2 3 4 7 9 9 8 7 7 8 9 10 9 8 7 7 7 9 11 11 8 5 9 17 22 22 22 23 22 20 20 19 20 21 22 21 19 18 18 18 19 20 19 18 19 19 19 18 18 18 17 16 16 15 16 15 15 15 14 15 14 13 13 12 12 11 11 11 11 10 9 9 8 8 7 6 5 4 3 2 2 2 2 2 1 1 0 1 2
1 2 0 1 2 3 2 2 4 5 6 7 9 9 6 7 9 9 9 8 7 9 10 10 11 12 12 9 5 7 13 20 22 23 23 22 21 20 20 19 19 19 21 21 20 19 18 18 18 19 19 18 18 18 18 18 18 17 16 16 15 15 14 14 13 13 13 13 13 12 11 11 10 10 9 9 9 8 7 6 6 6 5 4 3 2 2 1 1 1 1 1 1 0 1 2 2
1 1 0 1 2 2 1 2 5 6 7 8 8 7 6 7 8 10 10 7 7 10 6 4 8 9 10 7 5 9 16 19 21 23 23 22 21 20 19 19 19 19 19 20 20 20 19 18 18 18 19 19 18 17 17 17 17 17 16 15 15 14 14 14 13 12 12 11 11 11 10 9 9 9 8 8 7 6 5 4 4 4 4 3 3 2 2 2 2 2 1 1 1 1 1 2 3
0 0 1 2 2 1 2 2 5 6 6 4 6 7 6 5 6 9 10 8 5 4 3 6 10 8 9 7 6 10 15 18 21 23 23 22 21 20 19 19 19 19 19 19 19 19 20 19 18 17 18 18 17 16 16 16 16 16 16 16 15 15 14 14 13 13 12 11 11 10 10 9 9 8 7 7 6 5 5 5 4 4 3 3 3 3 3 4 4 3 3 2 2 3 3 5 6
2 0 1 2 1 1 2 3 4 5 4 3 6 7 5 4 5 8 10 9 2 2 6 9 10 8 9 8 6 8 13 20 22 22 22 20 20 19 18 18 19 19 19 18 18 19 19 19 18 18 17 17 17 16 15 15 16 16 15 15 15 15 15 15 14 14 13 12 12 11 10 9 9 8 7 6 6 5 5 5 5 4 4 4 4 5 5 5 6 5 5 4 3 5 6 8 7
2 0 0 2 2 2 1 2 3 4 4 4 6 6 6 5 6 7 7 6 5 5 7 7 4 3 9 9 7 10 16 23 23 22 21 19 19 19 19 18 18 18 17 17 17 18 18 18 18 18 18 17 18 17 16 15 15 15 15 15 15 15 16 15 15 14 14 13 12 12 11 10 9 8 8 7 7 6 6 6 5 4 4 4 5 6 6 6 7 6 6 6 6 8 9 9 9
1 0 0 1 2 3 2 3 3 4 4 5 7 8 9 7 6 5 4 5 8 6 2 1 2 1 9 9 11 18 21 24 22 21 20 19 18 18 18 17 17 17 16 16 16 17 17 17 17 18 18 18 18 17 17 16 15 15 15 15 14 15 15 15 15 15 14 14 13 13 12 11 11 10 10 9 9 9 8 7 7 5 3 4 6 9 8 7 7 7 6 6 7 10 11 11 11
1 1 0 2 2 3 5 6 4 4 6 8 8 8 9 7 7 7 8 11 10 7 6 5 5 4 9 11 20 25 23 23 22 21 20 19 17 17 17 16 16 16 15 16 16 16 16 17 17 17 18 18 18 18 18 17 16 16 15 15 15 14 15 14 14 14 14 14 13 13 13 13 13 12 12 11 11 11 10 9 8 6 3 5 10 12 9 8 8 8 7 6 7 9 10 12 12
2 1 1 3 2 3 5 6 4 6 9 10 9 7 10 9 8 8 8 12 10 9 9 9 11 11 14 19 26 27 24 23 21 21 20 18 16 16 16 16 16 15 15 16 15 16 15 16 16 17 18 18 18 18 18 17 17 16 14 15 15 14 14 14 13 13 13 13 13 13 14 14 14 14 13 12 12 11 11 10 9 6 4 8 14 12 9 9 8 8 8 7 8 8 8 10 11
2 1 2 2 1 1 1 6 7 6 10 12 7 5 8 8 8 5 4 8 8 9 9 10 14 15 18 22 25 26 25 22 20 19 18 17 16 16 16 16 16 15 15 14 15 16 15 16 16 17 17 17 17 17 16 16 15 15 14 14 14 13 13 13 13 13 14 13 13 13 13 14 13 13 13 13 13 12 12 11 10 7 5 11 15 12 10 9 8 8 6 4 7 9 7 8 9
1 1 2 2 3 2 1 5 6 5 10 12 8 6 8 7 4 3 5 7 5 7 7 8 13 16 17 20 22 25 23 21 19 18 18 17 15 15 15 15 15 15 14 13 14 16 16 16 16 16 16 16 15 15 14 15 15 15 15 15 14 14 14 14 14 15 15 14 13 13 13 13 13 13 13 13 13 12 12 12 11 8 7 12 15 12 11 10 8 6 4 3 5 9 9 8 9
1 0 1 4 4 3 3 4 5 5 9 12 9 9 9 6 4 4 4 5 3 4 5 6 14 18 18 19 21 23 22 20 18 17 17 17 15 14 13 14 13 13 13 13 13 15 16 16 16 16 16 15 15 14 14 15 16 15 15 16 16 15 15 14 15 16 17 16 15 14 14 14 13 13 12 13 13 13 12 12 11 10 9 13 16 14 12 11 9 7 4 3 4 9 11 9 8
2 1 2 3 2 4 6 7 9 9 11 12 10 8 6 5 7 6 4 4 3 1 4 9 15 18 19 19 19 20 20 19 17 16 17 16 16 14 13 13 12 12 13 13 14 15 16 17 17 16 16 15 15 14 14 14 15 15 15 15 16 16 15 14 14 16 17 16 16 15 15 15 15 14 13 13 14 13 14 13 13 12 12 13 15 16 14 12 11 9 6 5 4 8 12 11 9
1 2 3 4 4 6 7 8 9 10 12 10 7 7 6 8 8 6 7 7 4 6 9 13 15 16 19 19 18 17 16 16 17 16 16 16 17 15 15 14 13 13 13 13 14 14 16 17 16 15 15 15 16 14 12 12 13 14 15 15 16 17 16 15 15 16 16 16 15 15 15 15 15 15 14 14 15 15 16 15 14 14 13 13 14 15 14 13 13 11 9 7 6 8 11 12 10
3 4 5 7 9 9 8 9 9 9 11 8 7 8 6 8 7 5 8 8 8 12 13 15 16 18 18 17 16 16 15 16 15 15 14 14 16 15 14 13 13 13 12 13 13 14 15 16 16 15 15 15 15 15 13 11 12 14 15 16 17 17 17 16 16 16 16 15 15 15 15 15 15 15 15 15 16 16 17 17 16 15 14 13 14 14 14 14 14 13 11 9 8 8 10 12 11
5 5 5 7 9 8 9 11 12 12 9 8 10 10 8 9 8 7 8 9 11 13 14 15 16 16 15 15 15 14 14 15 15 14 13 12 13 13 13 12 12 13 13 13 14 14 14 15 16 15 14 14 14 14 13 12 13 14 16 17 18 18 18 16 16 16 15 15 15 16 16 16 16 16 16 16 16 17 18 18 18 17 16 15 14 14 15 14 14 14 13 11 9 9 10 11 11
4 5 7 9 10 8 10 12 13 11 7 9 12 10 9 8 6 7 7 8 12 13 13 14 14 14 13 13 14 14 14 15 15 14 13 11 12 12 13 12 12 13 14 13 14 14 14 14 15 16 15 14 13 14 13 12 13 14 15 16 18 18 17 16 15 16 16 16 16 16 16 17 17 16 16 16 16 17 19 20 19 19 18 17 16 16 15 15 14 14 14 13 12 11 10 10 10
6 11 12 11 10 6 8 12 12 10 7 9 13 11 8 4 3 5 6 9 13 13 13 12 12 12 12 12 13 14 14 15 15 14 13 12 12 13 13 13 13 13 13 13 13 13 13 13 14 15 15 15 15 14 14 13 13 14 14 14 15 15 16 15 15 16 16 16 16 16 16 16 16 17 17 17 17 18 20 21 21 21 20 19 18 17 16 16 15 15 15 15 15 14 12 11 11
12 16 14 11 11 7 7 12 11 7 6 6 11 14 10 6 4 5 7 9 12 13 13 11 10 9 10 11 11 12 12 14 14 14 14 14 14 14 14 14 14 13 13 14 13 12 13 13 14 14 14 15 15 14 14 14 13 13 13 13 13 14 15 15 14 15 16 17 17 17 17 18 18 19 20 20 20 21 22 22 22 22 22 22 21 19 17 17 16 15 15 16 16 15 14 13 13
13 14 12 10 9 7 5 8 7 3 7 6 3 9 9 7 5 6 8 9 10 12 12 10 9 8 8 9 9 9 11 13 14 14 14 14 13 14 14 14 14 13 12 13 13 13 12 12 13 13 14 14 14 14 13 13 12 11 11 12 14 15 16 16 15 16 18 19 20 21 21 22 23 23 23 24 25 24 25 24 23 23 23 23 23 21 19 18 17 16 15 16 16 16 16 15 15
9 9 8 9 6 6 4 3 4 2 5 2 4 2 5 5 5 7 9 9 11 11 10 10 8 7 7 8 8 8 11 13 13 13 13 12 12 13 13 12 13 12 10 11 14 13 11 11 12 13 14 15 15 15 13 12 11 11 11 12 13 14 16 15 16 17 19 22 24 24 25 25 25 24 23 24 26 27 27 27 26 25 24 24 24 23 22 20 20 18 15 15 16 15 16 16 15
7 7 5 6 5 7 7 2 3 5 3 3 6 3 4 4 6 8 9 10 11 10 9 9 8 7 7 7 8 8 10 12 12 12 12 12 11 11 11 11 12 12 11 11 13 13 11 10 10 11 13 15 14 14 13 13 12 11 11 12 13 14 15 16 17 17 18 21 23 24 25 26 25 23 24 24 25 26 26 27 28 28 26 25 25 25 24 23 22 21 18 16 15 15 14 14 13
5 5 4 3 3 7 8 5 4 5 2 4 6 3 5 4 7 8 9 10 10 10 9 9 8 8 8 7 8 7 8 10 12 12 12 12 11 11 12 12 13 14 14 13 13 12 11 10 9 10 11 12 13 13 13 13 13 13 13 14 13 14 16 18 19 18 18 19 22 23 23 23 23 23 25 25 25 25 24 25 26 26 26 26 27 27 27 26 24 24 22 19 17 16 15 13 13
1 1 5 6 5 6 6 6 5 4 2 4 4 4 5 4 8 9 9 10 10 8 8 9 8 8 8 7 7 7 6 8 10 12 12 12 12 11 11 12 13 14 15 14 14 13 12 10 9 9 9 10 11 11 11 12 13 13 14 14 14 16 18 19 20 20 21 22 24 26 25 25 25 24 23 24 26 25 23 24 24 24 24 24 26 27 27 27 26 25 24 23 21 18 16 15 15
3 1 3 5 5 8 7 4 5 4 3 2 3 4 5 6 9 10 9 10 9 8 9 9 8 7 8 7 7 7 7 7 9 10 12 12 11 11 10 10 11 12 13 13 13 12 11 9 8 8 8 8 8 8 9 11 12 13 13 13 15 18 19 20 21 22 22 23 25 26 24 25 25 24 23 23 25 25 24 25 26 26 25 24 24 25 25 25 25 24 24 24 24 22 18 16 16
8 6 4 4 4 8 8 4 6 7 3 2 5 6 6 8 9 8 9 9 9 8 7 7 7 7 7 7 7 7 7 7 6 6 8 10 10 10 9 8 9 11 12 12 12 12 12 11 9 8 8 8 7 7 8 10 13 15 15 15 17 18 19 20 21 22 22 23 24 24 24 25 24 25 25 22 22 25 26 26 26 26 25 24 25 25 24 24 24 23 21 21 23 25 22 18 17
9 7 6 8 7 7 6 2 3 8 6 4 5 6 8 9 8 8 8 7 7 6 5 5 6 6 6 6 6 6 7 6 3 3 4 6 8 9 9 9 10 12 12 12 13 13 13 13 12 10 9 9 8 8 10 11 14 17 19 18 19 21 21 21 23 24 25 24 24 23 22 21 20 21 21 19 19 21 23 24 25 24 24 25 26 26 25 24 24 21 20 21 21 23 23 18 16
5 4 4 7 8 5 4 3 2 5 5 2 1 6 10 9 8 7 7 7 6 6 6 6 6 6 6 6 7 6 6 3 3 4 5 5 7 8 9 10 11 12 12 13 12 13 14 14 14 13 10 9 10 11 12 13 15 19 21 19 18 19 18 18 19 21 21 20 18 18 16 14 14 15 14 14 16 18 20 22 23 23 23 24 26 27 27 25 24 24 26 27 22 20 19 18 17
5 4 4 4 5 3 4 4 2 1 2 2 3 8 8 6 6 5 5 7 7 7 7 6 6 6 5 6 7 5 4 3 3 5 6 6 7 8 9 10 10 11 12 13 13 13 13 12 11 10 8 8 10 11 10 10 11 14 17 15 13 13 13 12 12 12 12 13 13 14 14 13 13 13 13 13 13 15 17 19 21 21 22 23 25 28 29 28 27 28 29 27 24 23 20 17 16
5 4 5 4 4 5 5 4 3 1 2 4 7 8 6 4 4 4 5 6 5 5 5 4 5 6 5 6 5 5 4 4 5 5 7 8 8 8 8 9 10 10 11 12 11 10 8 7 6 5 4 4 5 6 6 5 6 7 9 9 8 8 8 8 9 10 10 12 13 14 14 14 13 12 13 13 12 12 14 16 18 19 19 21 25 27 30 32 31 30 27 25 24 25 23 18 17
4 5 5 5 7 8 5 3 3 4 2 5 9 6 3 3 3 4 5 4 3 4 4 3 4 5 5 6 5 5 6 6 6 6 7 9 9 8 8 9 11 11 9 9 7 6 4 3 2 2 3 3 3 3 4 4 4 4 5 5 6 6 7 7 9 10 12 14 15 15 13 12 13 14 14 14 14 14 14 14 16 17 18 20 24 27 29 32 33 31 27 26 27 24 22 20 19
3 7 6 6 11 8 4 8 7 7 6 7 10 4 2 5 5 6 5 4 4 5 5 5 5 5 4 4 5 6 6 6 7 7 8 9 9 9 9 9 10 10 8 7 7 7 7 7 5 5 5 5 5 4 4 3 3 3 3 3 4 6 8 8 9 11 12 14 15 14 14 13 14 15 16 16 17 17 16 15 15 16 17 19 23 26 28 29 31 31 27 29 31 26 22 20 19
3 7 7 7 12 9 10 13 10 5 3 7 8 3 3 5 7 9 6 6 8 6 7 8 7 7 6 6 6 6 5 5 6 7 8 9 9 9 8 9 10 9 8 9 10 10 10 9 7 7 7 6 5 4 3 2 3 3 3 4 5 6 7 8 8 10 12 13 14 15 17 17 16 17 17 17 17 17 16 15 15 16 17 18 22 25 27 28 29 29 26 27 28 26 24 21 17
3 4 6 8 11 13 14 14 9 4 3 5 5 4 3 4 8 12 8 9 10 7 8 10 9 8 8 8 7 7 7 6 5 6 7 9 9 9 9 9 9 8 9 11 11 11 10 10 9 8 7 5 4 2 1 1 1 2 2 3 4 4 6 7 8 9 11 12 13 14 15 17 18 18 18 17 16 15 15 13 13 15 15 16 20 23 26 27 26 24 23 24 26 27 27 26 21
3 3 8 11 12 14 15 13 7 2 4 5 2 2 2 3 5 9 10 10 11 10 11 11 11 11 10 10 9 8 8 7 7 7 8 9 9 9 9 9 10 10 11 12 12 12 12 11 10 8 7 6 4 3 2 1 1 1 1 1 1 2 4 6 7 8 9 10 12 12 13 14 16 17 17 17 16 15 15 13 12 13 14 14 16 20 22 22 21 20 21 24 27 28 27 29 27
2 3 8 8 7 9 10 8 5 3 4 4 4 2 3 4 1 3 8 11 12 14 15 14 13 13 12 11 11 10 9 8 8 8 9 9 9 9 9 10 11 11 12 12 13 14 14 12 10 8 6 5 4 3 3 2 2 2 2 2 3 3 5 6 6 8 8 9 11 12 12 12 13 14 14 15 15 14 13 13 13 13 13 14 15 17 18 19 18 18 20 22 23 24 26 28 27
4 8 11 10 8 8 4 3 4 3 3 4 7 9 5 4 2 3 6 9 14 15 14 14 14 14 13 12 11 11 9 8 8 8 9 9 9 9 10 11 11 11 11 12 15 15 13 11 8 6 5 4 3 3 4 4 4 4 4 5 4 5 6 6 6 7 8 8 10 11 11 11 11 12 13 12 12 11 10 11 12 13 13 14 15 15 16 17 17 17 19 21 22 24 29 28 25
11 11 12 11 8 6 5 3 3 2 4 2 5 11 7 3 3 6 7 8 12 14 11 11 14 14 13 12 11 12 10 9 9 8 8 8 8 8 10 11 11 11 12 13 15 14 12 9 7 6 5 4 4 4 5 5 5 5 6 7 6 7 8 7 6 7 8 9 10 10 10 11 11 11 11 10 9 9 9 9 10 11 12 12 13 14 15 16 15 15 16 19 21 24 27 26 24
7 7 8 8 5 3 3 2 1 3 5 1 1 7 8 5 4 5 8 6 6 10 11 13 16 15 14 12 12 12 10 10 9 8 7 8 8 8 9 10 11 12 13 13 13 12 10 9 8 6 4 3 3 4 4 5 6 6 7 8 9 9 10 9 7 8 9 9 10 10 10 11 11 11 10 10 10 10 9 8 8 9 9 9 10 11 12 13 13 13 14 14 17 20 22 22 22
3 6 7 5 3 3 3 2 2 4 3 2 1 6 6 7 8 6 8 9 7 8 10 13 16 16 15 13 12 11 10 11 10 8 8 8 8 9 9 10 11 12 12 13 13 12 11 9 7 5 3 1 1 3 4 5 6 7 8 10 10 10 10 9 8 8 9 9 9 10 11 12 13 13 12 12 12 11 10 9 9 9 9 9 9 10 10 10 12 13 13 12 14 15 17 20 22
6 7 5 4 4 4 4 3 1 3 1 3 2 5 4 5 7 6 7 9 9 9 8 9 12 15 15 14 13 12 11 11 10 8 8 7 8 9 9 9 11 11 12 13 13 12 10 8 6 5 3 2 1 2 4 5 5 6 9 9 10 9 10 11 10 9 9 8 9 10 11 11 12 13 14 13 12 12 11 10 10 10 10 9 10 10 9 9 11 13 14 14 15 16 15 18 21
4 2 2 4 4 3 4 3 3 2 2 4 4 4 4 3 1 2 2 3 4 6 6 7 9 11 13 12 12 12 12 11 9 8 8 8 9 10 9 10 11 12 13 13 13 12 11 9 7 6 4 3 2 2 3 4 5 6 8 8 8 8 10 12 12 11 10 8 8 9 10 10 11 12 12 12 12 12 11 11 10 10 10 10 10 10 9 10 11 13 14 15 16 17 16 19 21
2 1 1 2 3 3 1 0 1 1 2 3 3 2 3 2 1 1 2 3 4 5 6 8 9 10 11 10 11 11 11 10 10 9 9 9 10 10 10 11 12 13 14 14 14 13 11 10 8 7 5 4 2 2 4 4 5 6 7 7 7 8 10 11 12 13 13 11 9 9 9 9 9 10 11 11 11 11 11 11 11 10 9 9 9 10 9 9 10 11 13 15 16 16 16 18 21
3 2 3 1 1 3 3 2 2 1 2 2 2 3 3 2 3 2 2 5 5 5 8 10 10 11 12 11 11 11 11 11 11 10 9 9 11 11 11 12 13 14 15 16 15 13 12 10 9 8 6 4 3 3 4 4 5 6 6 7 8 9 10 10 11 13 14 15 14 12 11 9 9 9 9 10 10 10 11 10 10 10 10 11 11 11 10 10 10 10 11 14 16 16 16 18 20
3 4 6 5 1 1 2 1 2 1 4 2 2 4 3 1 2 1 2 7 6 6 8 10 10 11 13 12 12 12 12 11 10 10 9 9 11 11 12 12 13 15 16 17 15 13 12 11 10 8 7 5 4 4 5 6 6 6 7 8 8 9 10 10 11 12 13 14 15 15 13 12 12 11 9 9 9 10 9 9 10 12 14 15 13 12 12 11 11 11 11 13 15 16 18 19 20
1 3 6 3 2 1 1 1 2 2 3 2 2 3 3 4 3 1 4 7 7 6 8 10 12 13 13 13 13 13 12 10 10 10 9 9 11 12 12 13 13 15 17 16 15 13 13 12 11 9 8 6 6 6 6 7 7 8 8 8 9 9 10 10 10 11 13 14 14 15 14 13 14 14 11 9 9 9 9 10 12 15 16 16 14 13 13 13 13 14 14 14 15 16 18 20 20
4 5 4 1 1 1 1 1 1 2 2 1 2 1 3 4 3 3 5 5 6 8 9 11 13 14 13 12 13 13 12 11 10 10 9 10 12 12 13 13 13 16 18 16 14 13 13 12 12 10 9 8 7 7 7 8 8 9 10 9 9 10 10 10 10 11 13 14 14 13 13 13 14 14 12 10 8 8 9 11 13 15 15 15 15 15 15 16 16 17 17 17 17 18 19 22 22
5 5 4 1 2 1 1 2 1 1 2 1 2 3 3 2 3 5 5 4 6 10 10 10 12 12 12 11 12 11 11 11 10 10 10 10 12 12 12 12 13 15 16 14 12 12 12 12 12 10 10 9 9 8 8 9 9 10 10 9 10 10 10 9 9 10 12 13 13 12 12 13 13 13 13 12 10 9 10 11 12 13 14 14 15 16 17 17 17 19 20 20 19 18 20 23 23
4 5 5 4 4 3 2 2 1 0 1 1 1 4 4 1 2 4 3 2 6 9 10 10 10 12 12 11 11 11 10 10 11 11 10 10 11 11 11 12 14 14 13 12 12 12 11 12 11 10 10 10 9 9 9 10 10 10 11 10 10 10 10 9 9 9 11 11 12 12 12 13 14 14 14 14 13 12 12 11 10 11 12 14 16 16 17 17 18 19 20 19 19 18 20 22 22
Wind_Direction
125 122 129 125 84 324 314 313 57 44 43 77 56 88 82 85 117 123 127 133 129 146 127 108 130 126 100 97 111 88 39 29 24 58 108 120 148 156 172 157 142 138 141 135 127 131 133 134 132 130 129 129 133 134 133 132 135 137 136 135 135 135 135 134 134 133 133 134 134 135 136 136 135 134 134 134 133 132 131 128 126 125 124 126 130 133 135 135 136 134 131 130 128 127 124 121 118
133 133 140 134 250 303 357 293 45 63 69 79 55 55 92 129 130 129 138 142 121 125 118 112 110 83 85 101 109 92 46 27 63 86 99 130 139 148 168 162 142 135 142 140 131 133 136 138 136 134 131 133 137 136 134 132 135 137 137 137 135 135 134 134 134 134 135 136 137 138 137 137 136 136 135 134 134 134 132 128 127 126 125 124 125 128 129 130 130 126 124 125 125 123 119 115 114
140 138 140 141 250 272 135 327 54 62 68 79 71 56 111 131 125 125 133 126 116 123 117 113 101 72 96 107 61 51 70 58 104 108 117 138 142 150 159 160 145 134 139 140 136 135 138 137 136 137 133 131 135 137 135 133 136 136 138 139 137 136 134 135 135 136 137 138 139 138 138 137 137 136 134 134 135 135 133 130 130 130 128 124 122 122 123 124 124 122 121 121 120 117 112 109 108
142 141 134 189 226 156 312 64 53 60 71 74 87 79 99 109 108 101 108 117 123 128 120 117 93 34 49 92 67 68 92 98 113 115 132 145 146 148 150 153 148 137 136 136 135 135 135 135 134 135 132 130 133 135 134 134 135 134 136 139 137 135 134 135 135 137 138 138 139 138 137 137 136 135 133 134 135 136 135 133 133 132 130 127 124 122 121 121 122 122 119 118 119 116 109 104 102
139 144 132 313 275 111 25 94 67 59 65 59 99 82 81 98 106 105 106 112 121 125 120 118 92 65 62 71 51 87 100 113 126 124 132 140 140 144 145 147 148 140 135 131 130 132 134 134 132 132 130 130 132 133 134 136 135 134 137 138 137 136 136 136 136 137 137 138 138 138 137 136 136 134 133 134 136 136 136 136 135 134 132 130 127 124 121 122 122 119 117 116 116 112 105 98 92
133 150 261 325 62 148 154 89 62 66 64 46 96 91 99 108 115 114 110 97 88 96 108 105 109 114 85 64 52 80 116 122 136 139 133 138 141 143 142 144 144 140 135 130 130 132 133 133 132 134 133 130 133 134 135 136 135 136 138 138 139 139 138 137 137 137 135 137 138 140 139 137 135 133 133 134 136 136 137 137 135 134 132 130 127 124 121 121 121 117 115 118 117 110 104 98 93
132 158 293 353 109 269 69 70 53 71 64 341 101 118 118 118 123 121 122 111 88 77 87 96 115 114 93 92 74 67 95 117 137 145 139 142 143 144 143 142 141 141 137 132 134 134 133 134 133 135 136 134 135 136 135 136 136 136 137 138 138 138 138 138 138 137 137 139 140 142 140 138 136 135 135 134 136 137 136 135 135 136 134 133 132 130 129 129 129 123 116 120 121 111 100 97 90
121 324 295 352 46 27 58 63 56 66 57 59 101 120 126 128 131 117 118 118 100 92 100 112 113 95 80 95 90 69 85 110 132 139 140 143 143 145 145 143 141 141 138 137 137 135 134 136 136 136 138 138 137 139 136 136 137 138 138 138 139 140 140 140 140 139 140 142 143 143 141 139 139 139 139 139 138 138 139 143 145 145 146 146 145 146 147 146 146 139 132 129 120 104 89 72 55
351 335 242 29 53 59 59 57 74 66 77 111 111 118 126 132 123 99 104 106 106 98 109 148 125 94 97 92 94 91 97 115 128 135 142 144 145 146 147 145 141 141 139 139 139 137 136 135 136 136 139 139 140 141 138 138 140 141 141 140 142 144 143 143 143 143 143 144 144 143 142 141 143 144 144 146 144 144 149 154 156 156 159 160 160 161 160 159 153 147 142 139 134 121 81 328 313
335 3 67 88 86 87 84 66 78 74 90 117 121 127 129 128 109 97 107 112 109 92 91 103 96 110 112 98 96 102 117 128 133 138 144 145 146 147 148 147 142 142 141 141 142 141 138 137 139 139 140 141 143 144 142 142 144 144 143 143 145 146 146 145 145 146 145 145 146 144 145 145 147 149 150 154 155 157 159 161 163 165 171 173 176 176 177 176 162 157 147 150 164 153 212 280 302
341 31 302 93 101 108 105 82 71 79 104 116 118 127 129 123 109 100 108 110 110 113 112 97 97 108 104 94 91 112 130 137 140 143 147 148 147 149 149 147 145 144 143 144 144 143 141 142 143 144 146 146 148 148 146 146 147 147 145 146 147 147 148 148 148 148 148 148 150 149 149 150 150 152 155 159 160 163 164 165 171 177 184 190 196 200 205 197 193 202 182 182 188 203 266 278 293
342 45 287 77 75 85 104 92 84 97 116 123 128 135 133 131 121 120 122 119 128 131 128 118 129 118 99 100 103 130 140 143 146 146 148 148 148 151 150 149 148 146 146 146 145 144 145 145 146 149 151 151 152 151 150 150 150 150 149 150 150 152 153 153 154 152 152 153 154 155 155 158 156 158 161 164 167 170 177 184 194 202 206 211 218 232 256 258 259 263 272 267 292 322 301 275 255
186 113 326 71 41 72 127 120 108 119 117 120 136 138 136 139 132 130 127 124 142 142 85 120 147 126 96 108 119 140 146 147 150 149 149 149 149 151 151 151 149 149 150 149 148 147 147 147 149 151 151 151 152 152 154 154 154 156 155 156 157 158 159 159 161 159 159 160 163 165 165 168 169 171 174 180 187 193 204 211 218 231 238 245 256 273 282 286 291 294 292 290 306 300 259 243 237
184 288 323 98 96 89 111 124 139 141 112 111 133 135 128 112 124 127 125 122 88 60 101 117 132 112 110 126 134 154 154 151 152 151 151 148 148 150 150 151 149 151 152 152 153 151 151 150 151 152 153 152 153 156 157 160 160 161 163 163 164 164 166 166 167 167 169 172 176 178 178 181 182 185 192 197 202 206 215 220 224 239 258 277 297 304 305 308 306 305 305 311 304 281 263 256 255
201 346 80 114 121 122 129 144 162 149 116 136 144 133 110 96 129 120 111 112 77 96 126 134 126 103 148 161 159 162 156 153 153 150 149 145 146 147 149 151 150 153 154 155 157 156 156 155 156 156 156 156 158 159 160 167 167 168 171 171 171 172 173 173 173 175 177 180 184 186 188 191 194 198 201 205 209 212 217 221 229 241 267 297 311 301 300 303 298 295 301 312 307 292 284 279 277
208 294 126 107 131 150 171 166 168 150 128 142 145 132 111 100 114 92 71 105 110 109 90 148 320 341 158 160 145 149 151 151 151 148 147 143 143 144 147 151 151 156 157 159 161 161 162 161 161 160 159 159 161 163 165 171 173 174 177 176 178 179 180 180 181 182 182 185 187 190 193 196 200 203 203 207 212 215 219 224 233 242 266 300 292 276 274 281 284 284 287 298 300 293 293 290 283
174 254 176 106 146 165 167 174 174 141 128 140 157 152 127 113 94 83 83 91 102 92 48 47 28 68 128 130 131 139 146 148 149 148 146 144 144 147 150 155 156 160 163 165 166 166 168 166 166 165 165 163 164 169 172 175 176 179 180 181 184 185 185 186 188 188 188 191 191 193 196 199 203 206 208 211 217 221 225 230 235 237 247 272 267 263 267 273 279 287 292 293 283 279 288 294 289
173 244 142 117 143 153 164 171 154 126 138 156 172 161 132 125 115 115 98 86 90 81 68 72 67 79 103 117 128 136 144 147 151 150 149 151 151 154 157 163 165 167 169 171 173 172 173 172 171 172 172 172 172 175 179 180 179 181 183 184 186 190 191 192 194 193 195 198 197 201 203 205 210 212 215 218 224 228 231 235 237 234 227 254 259 261 267 268 273 285 294 298 284 272 275 287 290
186 255 103 129 160 100 145 160 155 151 155 155 149 124 118 119 125 145 121 103 102 85 80 89 90 97 110 121 129 138 146 149 154 154 154 157 159 160 162 167 171 172 173 175 177 177 177 176 178 180 180 181 181 181 183 183 182 185 187 187 189 192 196 198 200 199 202 204 205 211 213 216 219 222 225 228 233 236 238 239 239 235 228 253 262 266 268 266 274 282 286 300 288 280 273 276 284
184 183 114 143 170 107 88 158 161 160 145 134 114 96 98 100 112 139 132 122 110 105 111 112 117 122 127 132 135 142 149 151 155 158 158 161 164 165 165 169 173 176 176 176 178 181 182 180 183 188 188 189 188 188 188 187 188 189 190 192 195 196 200 205 205 205 209 211 214 219 222 226 230 232 234 237 242 243 244 243 241 237 232 253 266 269 269 271 277 282 279 281 282 285 281 273 276
148 219 120 134 163 116 71 99 89 85 112 115 115 114 99 85 80 98 127 117 92 130 151 146 140 138 137 141 143 147 151 152 157 161 162 165 169 170 171 174 176 177 176 177 179 184 186 184 187 191 194 195 194 195 195 196 197 196 196 199 201 203 206 209 211 213 216 219 222 225 228 233 236 237 239 239 242 245 246 245 241 236 229 249 263 266 269 275 278 279 270 250 262 284 284 276 276
102 13 37 92 146 96 76 81 87 96 106 109 115 110 98 91 74 70 63 46 50 103 149 144 144 143 142 144 145 149 152 155 160 164 167 170 172 174 177 179 180 179 178 181 182 185 190 190 191 194 196 199 201 200 200 204 204 203 204 204 207 211 213 214 216 219 222 224 227 229 231 235 238 239 240 240 242 245 247 246 245 241 235 242 256 263 268 272 274 274 267 243 238 274 283 282 280
118 77 38 49 70 95 99 97 104 114 110 105 106 96 100 105 77 50 55 52 63 96 119 133 138 141 142 142 145 151 154 159 165 169 174 174 175 177 179 182 185 183 183 185 185 188 193 195 196 197 198 201 206 205 203 207 208 208 211 213 214 217 219 220 222 224 227 227 229 230 231 235 237 240 242 245 246 246 248 249 249 248 243 241 248 257 263 266 266 266 264 250 230 252 274 280 279
102 94 61 63 77 94 106 105 104 102 99 99 108 103 92 99 92 55 65 79 97 106 119 129 135 140 142 143 148 153 157 163 168 173 176 178 181 182 181 184 185 184 188 189 188 193 196 197 199 202 201 203 208 210 209 212 214 214 216 220 220 221 224 226 227 230 232 232 232 233 235 237 239 242 245 248 250 251 252 252 251 251 248 246 246 251 255 259 262 261 259 251 235 237 258 273 276
71 93 86 83 81 92 105 105 103 95 97 107 101 93 80 84 90 67 70 100 111 114 124 130 137 143 145 147 150 154 159 165 169 172 176 181 182 183 187 189 187 188 193 193 193 197 198 198 200 204 204 205 210 213 215 220 221 222 223 225 225 225 227 229 231 234 236 238 237 237 238 241 242 244 247 251 254 256 258 257 255 253 252 250 249 251 252 255 260 261 259 253 245 241 247 261 270
60 94 95 97 94 101 110 104 104 103 105 111 100 92 91 87 75 68 80 116 120 122 128 134 143 148 151 152 155 159 164 169 171 174 177 180 181 185 192 193 195 197 196 197 197 199 198 199 202 205 206 207 210 214 219 225 226 227 229 229 229 229 230 231 235 237 239 240 240 240 240 242 246 248 251 255 257 259 261 262 260 258 257 254 251 252 253 254 255 256 257 256 252 249 246 250 260
101 96 85 92 96 95 109 105 103 99 94 109 111 102 89 67 49 82 108 128 128 128 132 142 149 151 157 157 160 166 169 173 174 175 175 179 186 192 195 197 202 203 200 200 199 198 197 199 203 206 209 210 213 216 219 223 226 229 232 233 232 231 231 233 239 242 242 243 244 245 245 246 248 251 255 258 258 260 262 263 263 263 261 258 255 254 256 257 256 254 253 253 254 252 248 247 252
118 104 86 80 90 92 105 109 105 94 109 130 115 102 81 51 66 105 132 143 137 133 137 151 156 156 162 161 164 170 173 175 177 180 182 185 190 194 197 199 202 202 204 205 202 198 197 200 203 206 210 213 216 217 218 221 224 229 232 234 235 235 236 240 245 246 247 249 249 250 251 252 253 255 258 261 262 263 264 263 262 263 262 261 260 257 256 260 264 261 255 252 252 252 249 247 248
120 111 100 92 95 108 111 109 108 108 152 176 138 97 70 48 85 126 141 150 144 138 143 155 164 165 165 165 167 173 177 179 184 190 191 190 193 196 199 200 199 199 204 207 204 201 200 203 205 208 211 214 218 217 219 223 224 230 233 235 238 240 243 246 249 249 251 254 256 257 258 258 258 259 262 265 267 267 266 265 262 262 262 262 262 259 257 259 264 265 260 255 251 249 249 248 249
112 105 111 120 117 134 162 122 126 189 151 203 281 103 71 63 116 144 148 155 151 144 149 158 168 172 170 172 174 179 184 188 194 198 197 196 197 200 203 202 199 199 199 202 206 205 202 206 208 211 213 216 219 221 223 227 230 235 239 242 243 244 247 250 252 254 257 261 263 264 265 264 263 262 264 267 269 269 267 266 264 261 262 262 262 261 258 257 260 263 261 257 252 248 247 249 249
114 109 110 140 156 160 178 173 168 194 147 309 287 146 109 108 134 153 159 162 162 156 158 163 169 177 177 178 181 185 190 195 202 203 204 203 201 205 208 205 203 207 207 207 211 207 202 208 213 215 218 220 223 226 229 231 236 240 245 249 250 251 252 254 256 258 261 264 267 268 268 268 266 266 268 267 267 267 266 265 265 264 263 263 262 262 261 258 258 259 259 256 251 246 243 246 246
116 131 139 172 186 160 182 207 205 202 154 324 306 125 119 132 146 158 166 170 173 166 164 171 175 181 185 184 188 190 190 197 205 210 210 208 207 210 211 210 212 216 218 219 221 218 211 212 219 225 229 231 233 237 239 242 245 246 250 253 254 256 257 259 261 262 264 266 268 269 270 271 271 271 272 272 269 264 262 262 263 265 266 264 263 263 263 261 257 256 257 254 250 246 242 242 244
164 185 157 179 187 159 184 209 206 229 254 337 343 137 135 131 153 158 167 176 180 173 169 178 182 185 190 192 194 194 190 194 204 212 211 210 212 211 211 214 217 221 225 228 229 231 228 220 221 230 236 239 241 245 246 249 251 250 253 256 259 261 262 264 265 267 268 270 271 272 272 272 272 269 264 269 270 263 260 260 262 266 267 268 267 262 261 260 258 256 256 255 251 248 245 242 244
181 218 156 178 183 168 176 194 180 186 248 314 39 125 128 121 150 158 167 177 183 183 178 182 190 193 195 198 203 200 198 199 204 211 211 213 218 216 216 217 219 225 229 233 236 239 238 230 223 228 235 239 241 245 249 253 257 257 259 261 263 265 266 267 268 269 268 270 272 273 272 271 272 269 262 263 263 261 260 260 265 267 265 268 268 263 259 256 254 253 253 254 252 250 247 244 243
179 183 178 172 190 192 186 180 171 165 184 177 115 115 123 132 149 157 164 176 188 191 183 184 193 200 199 201 210 208 207 208 200 201 208 214 219 218 218 217 220 227 231 236 241 244 246 246 239 232 235 239 241 247 256 263 265 266 265 264 266 268 268 270 271 269 269 272 273 275 276 276 277 276 272 269 263 263 264 263 267 268 264 263 262 262 259 253 252 251 249 251 252 250 248 245 245
182 177 175 176 186 199 187 127 157 167 153 146 148 135 142 152 155 161 160 167 188 189 180 186 192 202 204 203 211 214 216 210 167 150 180 197 203 206 208 210 218 226 232 237 241 245 248 249 247 242 239 239 243 248 254 260 265 269 269 266 267 268 268 269 271 271 273 276 277 279 280 281 282 280 278 275 268 268 267 266 268 267 264 263 260 259 257 252 249 246 246 250 249 247 245 244 245
157 160 170 184 188 180 153 97 97 164 150 105 152 138 145 157 156 163 160 156 179 193 192 193 192 200 205 205 206 207 213 191 112 132 152 162 180 192 197 203 211 219 228 234 236 240 242 245 249 249 246 244 247 249 251 255 261 269 271 269 269 273 275 274 274 275 275 276 277 277 278 279 281 281 281 277 270 268 266 266 267 267 265 262 259 257 254 251 246 244 249 249 245 243 241 240 241
140 174 176 181 198 163 122 126 94 218 194 131 141 138 138 151 152 158 168 171 185 197 202 202 199 203 203 204 204 192 183 157 135 148 152 157 167 177 189 197 203 210 223 228 228 235 241 248 255 255 252 250 251 249 245 250 259 268 274 278 280 283 286 286 288 288 280 276 278 278 279 280 280 281 281 278 273 267 265 264 265 268 268 262 258 255 253 251 247 247 249 245 242 247 245 239 233
147 170 182 182 172 126 107 117 76 355 219 155 155 149 131 142 156 164 186 191 186 185 200 214 209 209 206 201 198 186 174 167 170 164 161 168 167 170 182 191 199 205 216 225 227 233 243 253 260 257 245 238 240 234 222 226 245 259 270 283 291 288 288 291 290 289 285 284 284 284 283 281 280 282 281 280 277 272 269 266 266 268 269 265 259 253 252 253 251 249 247 240 237 241 243 239 224
160 164 181 180 166 159 156 148 83 53 84 150 157 144 122 146 164 183 197 197 181 182 196 216 219 225 222 206 194 190 185 173 171 169 167 171 173 178 182 187 197 201 208 218 217 210 197 179 174 166 171 169 166 172 176 189 211 229 247 272 289 287 284 283 281 282 288 293 294 291 287 281 282 284 282 281 279 278 276 272 271 270 269 267 263 258 255 255 255 250 246 240 233 229 233 234 224
184 189 198 177 173 175 136 136 124 75 72 136 145 130 176 191 197 198 193 197 201 196 196 202 210 226 238 217 203 201 194 178 171 170 169 174 181 186 186 191 196 198 198 191 173 159 149 141 133 126 128 125 126 133 143 162 177 195 226 261 277 282 286 285 288 294 299 302 302 298 292 287 286 284 282 280 279 279 277 274 275 275 274 272 268 264 261 258 257 254 248 238 230 227 230 233 228
189 210 221 192 170 145 116 136 144 121 131 167 163 189 208 187 209 210 188 198 206 196 204 209 201 207 219 213 208 205 199 186 176 171 169 175 179 178 180 186 189 189 181 164 153 148 146 141 129 120 119 116 113 114 118 139 162 182 201 218 234 257 275 280 288 299 303 302 301 298 296 295 293 291 289 285 281 279 277 276 277 278 278 275 270 266 262 258 258 257 248 235 230 235 239 241 235
167 197 189 169 154 137 136 151 158 160 169 171 192 246 223 178 214 214 198 206 211 201 211 214 199 198 207 209 207 199 197 190 178 178 176 176 176 174 177 179 178 174 165 158 156 154 149 140 132 130 130 130 126 114 82 90 154 181 193 207 226 243 261 274 284 293 296 298 299 300 300 300 299 299 296 290 285 280 279 279 281 281 278 274 271 266 261 258 258 255 246 238 240 243 242 243 238
139 137 146 151 154 151 156 161 158 138 108 119 183 282 274 225 217 206 197 207 218 216 217 214 204 202 203 206 206 200 199 192 180 183 187 185 180 178 178 174 168 163 161 162 160 158 153 146 144 146 146 142 133 124 114 110 119 123 146 198 249 256 270 283 290 295 298 301 304 305 305 305 305 304 298 292 286 280 280 281 283 285 281 277 273 266 262 260 259 255 248 244 243 241 237 237 236
63 102 116 125 134 139 155 154 122 105 136 166 194 200 249 242 171 169 193 210 227 225 220 212 204 202 202 203 205 203 202 198 191 190 191 189 182 179 175 169 164 159 161 167 165 160 156 151 151 151 145 134 116 98 86 72 56 41 23 7 352 324 312 306 304 306 307 308 308 308 308 308 310 312 305 295 288 283 282 284 286 287 286 287 282 268 263 265 263 256 250 247 243 237 234 233 232
121 108 91 83 72 72 86 113 96 111 203 218 190 187 223 246 182 155 182 212 228 225 219 211 203 200 199 200 202 204 204 201 202 200 195 188 178 177 177 170 166 162 163 170 168 163 159 156 157 160 149 121 88 59 44 30 17 12 4 360 353 336 325 319 311 310 313 316 314 312 313 312 314 319 318 308 299 294 293 292 292 291 289 291 290 278 268 272 272 262 255 252 246 242 242 241 238
136 115 94 89 78 70 62 50 72 140 228 251 183 191 212 269 213 178 185 212 223 218 208 199 198 198 196 197 199 202 203 201 202 202 196 187 175 173 176 172 170 171 170 170 168 164 161 161 163 162 141 106 77 52 34 15 3 0 359 356 349 336 330 325 316 312 317 321 318 315 316 316 317 321 323 321 316 313 310 305 300 295 292 291 294 291 282 282 281 271 264 259 251 247 248 246 239
136 120 121 107 82 95 93 66 99 226 225 24 37 194 200 243 242 192 201 217 223 217 206 196 196 195 193 194 197 198 201 199 198 198 193 188 181 176 177 176 174 177 176 174 171 168 168 169 167 157 133 104 67 41 19 0 352 347 348 348 343 335 331 326 315 311 316 316 314 315 314 314 316 319 323 325 324 323 319 314 309 302 298 295 295 298 293 288 282 275 270 262 254 246 240 238 234
136 134 143 126 108 157 165 165 199 235 227 47 49 186 189 242 257 249 226 220 222 225 220 207 198 192 188 190 192 193 197 199 197 196 194 191 189 184 180 178 178 180 181 180 179 179 180 179 174 169 164 170 5 7 356 349 343 337 338 339 337 333 329 325 313 309 314 314 314 315 316 316 316 318 320 321 322 324 322 315 313 308 303 301 295 296 298 289 279 276 274 268 264 252 235 239 244
165 153 158 150 145 176 186 173 230 249 221 55 115 180 204 253 261 269 242 224 224 224 230 224 204 191 187 187 189 189 193 197 194 193 195 193 193 190 183 180 183 187 187 186 187 188 189 188 187 194 212 235 301 341 344 344 333 328 333 333 332 330 328 325 319 317 318 318 320 318 318 318 315 315 315 316 318 321 321 317 314 311 306 306 301 297 295 286 279 277 275 269 270 266 247 245 254
167 142 167 172 166 192 204 190 212 220 131 85 114 176 220 224 209 306 270 265 249 232 234 233 215 196 186 183 184 186 191 194 190 192 197 197 194 192 187 186 189 191 191 190 192 194 195 197 201 208 217 232 279 324 334 329 319 322 326 326 327 326 325 325 323 325 325 323 322 318 316 316 314 313 311 312 315 315 316 316 314 314 311 310 308 304 300 293 288 285 281 275 272 270 259 250 251
130 44 178 199 181 163 148 103 169 118 111 137 160 218 244 238 267 304 282 287 264 241 233 224 216 199 185 181 182 187 191 190 189 192 196 195 193 192 190 189 192 193 193 195 198 199 203 209 214 215 222 235 267 310 318 310 305 315 320 319 322 322 323 324 322 324 326 325 324 319 316 315 314 315 312 310 313 313 314 315 314 314 316 317 319 319 315 306 300 294 287 283 278 273 265 255 251
138 174 176 157 33 118 122 101 69 40 222 173 177 246 260 277 261 211 240 258 238 224 222 215 208 192 185 188 188 190 192 188 187 189 191 191 190 191 190 190 191 193 196 202 204 207 214 220 220 218 224 235 263 296 302 297 295 304 312 314 318 320 320 321 319 320 323 323 323 323 322 322 321 319 315 312 312 312 313 313 312 317 324 329 331 331 327 320 313 303 291 288 284 278 271 265 261
159 183 155 132 79 68 107 153 117 186 235 189 175 248 265 285 264 169 215 244 229 212 210 205 198 189 191 195 192 191 191 186 182 182 185 188 189 190 188 189 192 197 204 208 209 213 219 221 220 220 226 238 261 286 295 296 292 293 304 311 316 318 315 317 321 322 322 319 316 316 318 323 330 326 318 314 313 313 312 310 314 321 327 331 331 330 328 323 318 309 298 292 286 280 276 272 268
41 144 135 138 201 164 109 185 172 203 243 208 182 254 266 224 226 219 223 231 217 199 198 198 197 195 196 197 193 191 188 180 178 181 184 188 191 191 187 187 192 201 209 211 211 216 218 220 222 224 231 245 263 281 290 296 293 289 297 305 312 315 312 316 323 324 322 319 314 310 309 315 325 328 323 315 311 312 310 309 316 321 324 327 326 325 324 322 317 312 306 298 291 285 280 276 271
64 123 129 358 309 135 136 134 189 231 228 210 195 240 244 214 208 226 233 224 195 185 193 202 203 201 201 197 192 190 186 182 181 183 184 187 191 191 188 188 191 203 210 209 210 215 215 220 225 230 239 251 264 276 283 290 290 287 290 299 308 312 311 313 321 325 326 326 321 312 307 308 315 323 325 318 310 308 308 309 313 316 317 319 320 319 319 319 318 316 312 306 300 295 288 283 278
142 163 159 142 100 95 178 120 58 266 190 184 234 255 253 206 182 217 235 222 187 186 194 204 207 204 204 200 195 190 184 182 180 180 183 186 188 187 185 187 192 203 209 206 209 214 215 220 226 232 243 251 261 270 277 284 286 282 283 292 302 307 310 311 316 324 330 333 330 320 311 307 306 312 319 318 314 309 308 308 308 310 312 314 315 318 319 321 321 321 318 313 308 302 295 291 287
162 182 184 166 138 137 186 181 165 265 227 187 224 269 271 165 164 221 242 230 202 196 197 201 205 206 204 202 200 194 183 180 179 181 184 184 183 181 180 185 193 202 206 204 210 216 218 222 227 234 242 248 256 265 273 280 279 274 275 285 295 302 307 307 308 319 328 331 333 328 318 310 306 307 309 311 312 311 309 308 304 304 310 314 315 318 321 321 322 323 323 322 318 312 305 299 294
Height
763 764 764 765 764 764 765 765 780 786 785 801 801 800 800 790 789 794 799 797 798 796 788 789 791 793 798 802 806 808 811 811 814 819 824 817 810 813 814 817 819 819 821 822 824 825 826 828 829 830 830 831 830 829 829 831 833 835 836 837 837 839 840 841 842 843 844 845 846 847 848 848 849 850 851 851 852 853 854 854 855 855 856 856 857 857 858 858 859 859 860 860 861 861 861 861 861
763 765 764 766 764 766 771 768 788 797 793 807 804 800 799 789 792 797 798 796 796 793 787 789 791 794 795 796 800 805 812 812 810 812 814 813 814 816 815 818 821 822 822 823 825 827 829 830 831 832 832 832 831 831 831 833 835 836 837 838 839 840 841 842 843 844 845 846 847 848 849 849 850 851 851 852 853 854 854 855 856 856 857 857 858 858 859 859 860 860 861 861 861 862 862 862 862
764 765 765 767 765 767 772 771 792 804 803 813 807 798 794 794 797 796 794 792 791 788 788 791 793 797 798 802 804 808 817 813 808 809 813 817 816 817 818 819 822 825 825 825 827 828 830 831 832 833 832 833 832 833 834 835 836 837 838 839 840 841 842 843 844 845 847 848 849 850 850 851 852 852 853 853 854 855 855 856 857 857 858 858 859 859 860 860 861 861 862 862 862 862 863 863 863
764 765 765 766 768 770 774 783 795 801 808 814 809 800 794 798 798 796 793 790 789 787 791 794 798 798 798 808 809 810 817 814 811 810 814 818 818 819 820 821 823 825 826 827 828 829 830 831 832 833 833 834 834 834 835 836 837 838 840 841 842 843 844 844 846 847 848 849 850 851 852 852 853 853 854 855 856 856 857 857 858 858 859 860 860 860 861 861 862 863 863 863 863 863 863 863 864
764 765 765 765 772 776 778 791 796 798 807 807 806 802 796 798 798 798 795 791 789 789 792 795 804 801 798 808 807 812 818 815 813 811 814 818 820 821 822 823 824 825 828 829 830 831 831 832 833 833 835 835 835 836 837 838 839 840 841 842 844 844 845 846 848 849 850 851 851 852 853 854 854 855 856 856 857 858 858 859 859 860 860 861 861 862 862 863 863 864 864 864 864 864 864 864 864
765 765 764 764 770 772 781 794 797 800 801 796 801 802 797 797 797 798 796 794 790 790 792 795 802 803 806 808 805 811 814 814 815 813 815 818 821 823 824 825 825 826 829 830 831 832 832 834 834 835 836 837 838 838 839 840 841 842 843 844 845 846 847 848 849 850 851 852 852 853 854 855 855 856 857 858 858 859 860 860 860 861 861 861 862 863 863 864 864 864 865 864 865 864 865 865 865
765 768 767 769 772 772 786 798 798 801 797 792 795 798 797 796 795 796 796 797 796 794 794 796 797 802 812 810 809 812 811 813 813 814 816 818 822 823 825 827 827 828 829 831 832 833 834 836 836 837 837 838 839 839 840 841 842 843 844 846 847 847 848 849 850 851 852 852 853 854 855 855 856 857 858 858 859 860 860 861 861 861 862 862 862 863 864 864 864 865 865 865 865 865 865 865 865
765 769 769 775 782 783 792 798 797 799 796 791 790 793 794 794 793 795 797 799 801 799 799 800 796 806 815 809 815 817 812 815 814 817 818 819 823 824 826 828 829 829 830 831 832 833 835 837 837 838 838 839 840 841 841 842 843 844 846 847 848 849 849 850 851 852 852 853 854 855 855 855 856 857 858 859 860 860 861 861 862 862 862 863 863 864 864 865 865 865 865 865 865 865 865 865 866
765 769 772 778 788 792 796 798 799 798 795 791 790 792 792 791 791 794 798 799 800 801 803 800 797 809 817 812 819 817 814 817 817 819 820 821 823 825 827 828 830 831 832 832 833 833 835 837 838 839 840 840 841 842 843 843 845 846 847 848 849 850 851 851 852 853 854 854 855 856 856 856 857 858 859 859 860 861 861 862 862 862 863 863 864 864 865 865 865 865 865 865 865 865 866 866 866
767 770 776 784 790 797 800 799 799 798 795 791 790 792 791 790 790 794 798 801 800 803 805 798 799 810 814 817 821 817 817 819 819 822 822 824 825 826 828 829 831 832 833 834 834 834 835 838 838 840 840 841 842 843 844 845 846 847 849 850 851 852 852 853 854 855 855 856 857 857 858 858 859 859 860 860 861 861 861 862 862 863 863 863 864 865 865 865 866 866 866 866 865 866 865 866 866
774 774 776 788 795 801 803 800 800 799 795 791 791 790 789 789 791 796 798 802 800 803 804 799 807 811 813 820 821 819 819 820 820 822 824 825 827 828 829 830 832 833 835 835 836 837 837 839 840 841 841 842 842 843 845 846 848 849 850 851 852 853 854 855 856 857 857 858 858 859 859 859 860 860 861 861 862 862 862 863 863 863 863 864 864 865 866 866 866 865 866 866 866 866 866 866 866
780 781 779 792 800 802 803 802 802 800 796 794 796 790 786 788 792 797 800 803 801 803 801 799 807 807 815 824 822 820 819 821 822 823 825 827 828 829 830 832 833 835 836 837 838 839 840 841 842 843 843 844 844 846 847 847 849 850 851 852 853 855 855 856 857 858 858 859 860 860 860 860 861 861 862 862 862 863 863 864 864 864 864 865 865 865 866 866 866 866 866 866 866 866 866 865 865
781 783 782 796 801 801 802 802 802 801 801 797 795 789 784 789 794 795 798 802 802 805 801 797 799 801 816 824 820 821 819 822 823 824 826 827 830 830 832 833 834 836 837 838 839 840 841 842 843 844 845 846 847 849 849 850 851 851 852 853 854 855 855 856 857 858 859 859 860 860 861 861 861 862 862 862 863 863 864 864 865 865 865 866 866 866 867 867 867 868 868 868 868 867 866 864 863
776 778 781 798 802 800 800 802 801 801 804 797 791 787 786 791 793 792 795 803 805 803 800 794 795 803 816 823 824 822 819 822 823 825 827 828 830 831 833 834 836 837 838 839 840 841 842 843 844 845 846 847 849 850 851 852 852 853 853 853 854 854 855 856 856 857 858 859 860 860 860 861 861 861 862 862 863 863 864 865 865 866 867 867 868 868 868 868 869 869 870 870 869 868 866 865 864
771 774 779 795 800 800 800 801 799 799 803 795 789 787 788 791 789 792 794 802 806 797 796 795 794 804 813 818 822 818 817 821 823 825 827 829 831 832 834 835 837 838 839 840 841 842 842 844 844 845 847 848 849 850 851 853 853 854 854 854 854 855 855 856 856 857 857 858 858 859 860 860 861 861 861 862 862 863 863 864 865 866 868 869 869 868 868 868 869 869 870 872 871 870 869 868 867
767 772 783 795 799 801 799 798 797 799 800 792 787 784 792 794 787 794 792 793 802 796 797 800 795 799 804 807 811 812 817 821 823 826 827 829 831 833 835 836 838 839 840 841 841 843 843 844 845 846 848 849 850 850 851 852 854 854 854 855 855 855 856 856 856 857 857 857 858 858 859 859 860 860 860 861 861 862 862 863 865 866 868 869 868 866 865 867 867 868 870 872 872 870 870 869 868
765 775 788 797 799 799 796 796 796 796 796 791 788 783 793 799 791 793 789 789 802 801 801 801 796 796 800 803 806 811 818 821 823 826 827 830 831 833 836 837 838 839 840 841 841 843 843 845 845 847 848 849 851 850 851 852 853 854 854 855 855 856 856 857 857 857 858 858 858 858 858 859 859 859 859 860 860 861 862 862 864 865 868 868 864 862 864 865 866 868 869 870 869 867 868 868 867
772 784 791 796 798 793 788 789 788 787 791 791 788 784 791 799 797 792 792 798 804 805 805 802 800 799 801 805 808 813 818 821 823 825 827 829 831 832 834 836 837 838 839 840 841 843 844 845 846 847 848 849 851 851 851 852 853 854 855 855 856 857 857 858 858 859 859 859 859 859 859 859 858 859 859 860 860 861 861 862 864 865 867 864 859 860 863 864 865 868 869 869 867 864 864 865 866
777 786 791 794 792 786 781 782 782 782 786 787 787 787 789 796 796 792 799 808 806 809 812 807 808 808 807 809 812 816 818 822 823 824 826 828 830 831 833 835 837 838 839 840 842 843 844 845 847 848 848 849 850 851 852 853 854 855 856 857 857 858 858 858 859 859 859 859 860 859 859 859 859 859 859 860 860 861 861 862 864 865 865 861 858 861 863 863 865 867 867 868 866 863 862 863 864
776 782 791 791 784 783 780 778 779 778 780 786 791 790 791 794 793 793 801 808 807 811 814 812 815 814 812 812 813 816 819 822 824 825 826 828 830 830 832 834 835 837 839 840 841 843 844 845 846 847 848 849 850 852 853 854 855 855 856 857 857 857 858 858 859 859 859 859 859 859 860 860 860 860 859 860 860 861 861 862 863 864 864 860 858 861 862 862 863 865 866 866 864 862 862 863 863
775 778 786 784 779 784 783 779 780 779 780 786 791 791 795 794 791 795 801 807 811 810 808 809 812 812 813 813 813 817 819 822 824 826 826 828 830 831 832 833 835 836 838 840 841 843 844 845 846 847 848 849 851 852 853 853 854 855 855 856 857 857 857 858 858 858 858 859 859 859 859 859 860 859 859 859 859 860 860 861 862 863 863 860 858 859 860 861 862 863 865 865 864 861 861 864 863
777 780 781 779 779 786 785 780 781 781 781 786 791 794 796 794 794 799 802 809 812 806 803 804 807 808 810 812 814 817 819 822 824 825 826 828 829 830 832 833 835 836 837 839 840 842 843 844 845 846 848 849 850 851 852 853 853 854 855 855 856 856 857 857 857 858 858 858 858 859 859 859 859 859 859 858 858 859 859 860 861 862 862 860 858 857 858 859 860 862 863 864 864 861 860 862 862
779 783 781 781 780 784 785 781 782 781 784 790 792 793 793 796 804 803 804 809 806 800 800 803 806 808 809 811 814 817 819 822 823 824 825 827 829 830 831 833 834 836 837 838 840 842 842 843 845 846 848 849 850 851 852 852 853 854 854 855 855 856 856 856 857 857 857 857 857 858 858 858 858 858 858 858 858 858 858 858 860 860 861 860 858 857 857 857 859 860 861 862 863 862 860 860 861
777 786 785 783 781 784 784 782 783 782 787 791 789 792 796 801 808 806 807 808 803 800 801 803 807 809 811 813 815 818 820 822 823 824 826 827 829 830 831 832 834 836 837 838 839 841 842 843 845 846 847 848 849 850 851 852 852 853 853 854 854 855 855 856 856 856 856 856 856 856 856 857 857 856 856 857 857 857 857 857 858 859 860 860 859 857 857 856 857 858 859 860 861 861 860 859 859
779 787 787 784 784 786 783 782 784 785 788 788 789 797 802 802 805 809 812 809 804 803 803 805 808 811 813 815 816 818 820 822 823 824 826 828 829 830 831 832 834 835 836 837 839 840 842 843 844 846 847 848 849 850 851 851 852 852 852 853 853 854 854 854 855 855 855 855 855 855 855 855 855 855 855 855 856 856 856 856 856 857 858 858 858 858 857 856 856 856 857 858 859 859 859 859 858
783 785 786 786 789 788 785 785 786 788 789 788 796 804 804 800 803 813 814 809 806 805 806 808 810 813 815 816 817 819 820 821 823 824 826 828 829 830 831 832 833 834 836 837 839 840 842 843 844 845 846 847 848 849 850 851 851 851 852 852 852 853 853 854 854 854 854 854 854 854 854 854 854 854 854 854 854 854 854 854 854 855 855 856 857 857 856 856 855 855 855 856 857 857 858 858 857
781 782 786 788 791 789 787 789 788 789 792 792 800 808 806 801 805 819 817 808 807 808 811 811 812 815 816 817 818 819 821 821 823 824 826 828 829 830 831 832 832 833 835 837 838 840 841 842 843 844 845 846 847 848 849 850 851 851 852 852 852 852 852 853 853 853 854 853 853 853 853 853 853 853 853 853 853 853 853 853 853 853 854 854 855 855 856 855 855 855 854 855 856 856 857 857 856
777 780 789 792 791 793 790 791 792 793 798 796 797 805 807 805 811 821 816 809 809 810 814 814 814 816 816 817 818 820 821 822 824 824 825 827 827 829 829 830 831 833 834 835 837 839 840 841 843 844 845 846 847 848 848 849 850 850 851 852 852 852 852 852 852 852 852 852 852 852 852 852 852 852 852 852 851 851 851 851 852 852 852 852 853 853 854 854 854 854 854 854 854 855 855 855 855
776 778 794 801 796 800 797 793 794 796 800 795 795 807 815 816 819 818 812 810 811 812 816 816 816 817 817 819 819 821 822 822 823 823 824 825 826 827 828 829 830 832 833 834 836 838 839 841 842 843 844 845 846 847 848 848 849 849 850 850 850 851 851 851 851 851 851 851 851 851 851 850 850 850 850 850 850 850 850 850 850 850 850 850 850 851 851 852 852 853 853 853 853 853 853 853 854
781 783 794 805 808 810 801 795 797 798 799 793 799 819 827 824 820 815 811 811 813 816 818 817 818 818 818 819 820 821 821 822 822 822 824 824 826 827 827 829 830 831 833 834 835 837 839 840 841 842 843 844 844 846 847 847 848 849 849 849 849 849 849 849 849 849 849 849 849 849 849 848 848 849 849 848 848 849 848 848 848 848 848 848 848 849 849 850 850 851 851 852 852 852 852 852 852
789 794 798 806 817 817 802 797 801 802 800 792 800 821 828 824 820 815 812 811 814 818 818 818 819 819 820 820 820 821 820 821 822 822 824 824 825 826 827 829 829 831 832 833 834 836 838 839 840 841 842 843 844 845 846 847 848 847 847 847 847 847 847 848 847 847 847 847 848 847 847 846 847 848 847 846 846 846 846 845 844 845 845 846 847 847 847 848 848 849 849 850 850 850 850 850 850
794 804 813 813 815 815 805 798 800 804 801 793 800 820 826 823 819 814 811 812 814 818 819 818 819 820 820 821 820 821 820 821 822 822 823 824 825 826 827 828 829 830 831 832 834 835 837 838 839 840 841 843 844 845 846 846 846 845 845 845 845 846 846 846 845 846 846 845 845 845 845 844 844 846 845 843 843 844 844 843 842 842 843 844 845 845 845 846 846 846 847 848 848 848 848 848 848
800 805 818 818 814 818 814 802 797 800 803 798 802 817 825 821 817 814 812 813 815 818 819 818 819 820 820 820 820 820 821 821 822 822 822 823 824 825 826 827 828 830 831 832 833 835 836 837 839 840 841 842 843 845 845 845 845 843 843 843 843 844 844 844 844 844 844 843 843 843 843 842 842 842 842 842 841 840 841 840 840 840 841 842 842 843 843 843 844 844 844 845 846 846 846 846 846
809 807 814 816 814 817 818 809 799 798 805 807 805 812 822 820 816 815 813 813 816 819 819 819 819 820 819 819 819 820 821 821 821 821 822 823 824 825 827 828 829 830 831 832 833 835 836 837 838 839 840 842 843 843 844 844 843 841 840 841 842 842 842 842 842 842 841 841 841 840 840 839 838 838 839 839 838 837 837 837 837 837 839 840 840 840 840 841 841 841 842 842 843 844 844 844 844
809 810 812 817 816 814 815 812 804 801 808 812 811 817 822 821 817 817 814 814 817 819 818 818 818 819 820 819 819 819 820 820 820 820 822 823 824 825 827 828 829 830 831 832 833 834 835 836 837 838 839 840 841 842 842 842 840 838 839 840 840 839 839 840 840 839 838 839 838 838 837 836 835 835 834 835 835 834 834 834 833 834 835 836 837 837 837 837 838 839 840 840 840 840 841 841 841
798 803 805 811 814 813 811 808 802 801 810 815 814 819 823 822 820 818 816 815 818 819 819 819 819 819 820 820 820 819 820 820 820 821 822 823 824 825 826 828 828 829 830 831 832 833 834 835 836 837 838 839 840 841 841 841 839 837 837 839 838 837 837 838 838 837 836 836 836 835 834 833 832 831 830 831 832 831 831 831 830 830 831 832 833 833 833 833 834 836 837 837 838 838 838 839 839
792 799 803 804 807 810 809 808 804 799 810 821 817 819 823 823 822 819 817 818 819 821 822 821 821 820 820 820 820 820 820 820 820 821 823 823 824 825 826 827 828 829 829 830 831 832 833 834 835 836 837 837 838 839 840 840 838 836 836 837 837 836 836 836 836 835 835 834 834 833 832 831 830 829 828 828 828 829 828 828 828 828 828 828 828 828 828 828 830 831 831 832 835 836 835 836 837
794 798 802 806 807 809 809 809 807 801 809 824 821 822 827 824 823 821 819 820 821 821 822 822 821 820 820 820 820 820 820 819 820 821 822 823 824 825 826 826 827 828 829 830 830 831 832 833 834 835 836 836 837 838 839 839 838 836 835 835 836 835 835 834 834 833 833 833 832 831 831 830 829 828 827 826 826 826 826 825 825 825 825 825 824 823 824 825 826 826 827 829 832 833 833 833 835
798 800 802 807 807 810 813 809 808 804 810 824 824 825 830 827 823 822 820 821 821 819 820 821 821 821 821 820 820 820 821 821 820 821 821 823 823 824 825 826 827 828 828 829 830 831 832 832 833 834 834 835 836 837 838 838 838 837 836 835 835 835 834 834 833 832 832 831 831 830 829 828 827 826 826 825 824 824 823 823 823 823 823 822 820 820 820 821 821 822 824 826 827 829 829 830 831
799 800 802 806 805 808 814 814 813 808 809 820 823 826 831 829 826 825 821 820 820 820 819 820 820 821 820 819 819 820 821 821 821 820 820 821 822 823 824 825 826 827 827 828 829 830 831 832 833 833 834 834 835 836 836 837 837 836 836 835 834 834 834 833 832 831 831 830 829 828 827 826 826 825 825 824 823 822 822 822 821 820 820 819 818 817 817 817 818 818 821 823 823 824 825 825 826
800 798 796 800 801 801 805 812 813 811 814 816 820 833 835 829 830 828 821 820 821 820 820 821 820 820 820 819 818 818 818 819 819 819 819 819 821 822 823 824 825 826 827 828 829 830 831 832 832 833 833 834 834 835 835 836 836 836 835 835 834 833 832 832 831 830 829 828 827 826 825 824 824 823 822 822 821 820 820 819 819 818 817 816 815 815 814 814 815 816 818 819 819 819 821 822 822
800 797 792 792 796 799 804 809 810 818 829 819 818 840 841 828 830 828 822 823 823 821 822 822 821 820 821 821 819 818 817 817 817 817 817 818 819 821 822 824 825 826 827 828 829 830 830 831 832 832 833 833 834 834 834 834 835 835 835 834 834 833 832 831 830 829 828 827 826 824 823 822 821 820 819 819 818 817 817 817 816 816 815 814 813 813 812 812 813 813 815 816 817 818 819 820 820
799 793 788 790 792 799 806 806 808 821 831 819 815 834 838 831 828 823 821 825 823 822 822 820 820 820 820 820 818 817 817 816 816 816 816 817 818 820 821 823 824 826 827 828 828 829 830 830 831 832 832 833 833 833 833 833 833 834 833 833 833 832 832 831 830 828 827 826 824 823 821 820 818 817 816 816 816 815 815 814 814 814 813 812 812 811 811 811 811 812 813 813 815 817 818 819 818
795 788 786 792 793 798 802 801 809 818 822 823 821 825 834 833 825 818 819 825 825 822 822 819 817 818 817 817 817 816 815 815 815 816 815 816 818 819 821 822 824 825 826 827 828 829 829 830 831 831 832 832 832 833 833 833 833 833 832 832 832 831 830 829 828 827 826 825 824 822 821 819 817 815 814 813 813 813 813 812 812 811 811 811 810 810 809 809 810 810 810 809 810 813 814 815 815
795 790 788 793 794 797 798 800 812 817 821 833 831 825 836 834 822 820 820 824 826 821 817 816 814 815 814 814 814 813 814 813 813 814 814 815 817 818 820 821 823 824 825 826 827 828 829 829 830 830 831 831 831 832 832 832 832 831 831 830 830 829 828 828 827 826 825 824 823 822 820 819 817 815 813 812 811 811 811 810 810 809 809 809 808 808 808 808 808 808 807 807 807 809 810 810 810
793 790 790 795 799 802 804 809 816 821 826 833 829 825 835 833 820 824 828 826 822 813 808 809 809 810 811 811 812 811 812 812 812 812 812 814 816 818 820 821 822 824 825 826 827 828 828 828 829 830 830 830 830 830 830 830 830 830 830 829 829 828 827 826 825 825 824 823 822 821 819 818 816 815 813 811 810 809 809 809 808 808 807 807 807 806 806 806 806 806 806 805 805 805 805 805 806
785 788 793 801 806 806 811 814 816 830 835 829 825 821 830 834 819 815 821 814 805 801 803 805 804 806 808 808 809 809 810 811 811 811 812 814 816 817 819 820 822 823 824 825 826 827 827 828 828 829 829 829 829 829 829 829 829 829 829 828 827 827 826 825 824 824 823 822 821 820 819 817 815 814 812 810 809 809 808 808 807 807 806 806 805 805 805 805 804 804 804 804 803 802 802 802 804
782 788 794 807 817 815 821 823 824 841 841 829 828 822 829 839 818 802 804 797 793 796 797 799 800 802 804 805 805 806 807 808 809 810 812 813 815 816 818 819 821 822 823 824 825 826 826 827 828 828 828 828 828 828 828 828 829 828 828 827 826 825 825 824 823 823 822 821 820 819 818 816 814 813 811 810 809 808 808 807 806 806 805 805 804 804 803 803 802 802 802 802 802 802 802 803 804
784 790 797 814 831 834 837 839 838 842 836 830 831 827 833 834 807 792 795 792 792 792 789 790 793 796 799 801 802 803 804 805 807 809 810 811 813 814 816 818 819 820 821 822 823 824 825 826 827 827 827 827 827 828 828 828 828 827 827 826 825 824 824 823 822 821 821 820 819 818 816 815 814 812 811 809 808 808 807 806 805 804 804 803 803 802 802 801 801 801 801 801 801 801 802 802 801
787 791 798 813 832 845 851 851 849 843 832 829 829 829 834 825 800 790 790 787 787 787 786 786 787 791 794 795 797 799 801 803 804 807 808 809 811 812 814 816 817 819 820 821 822 823 824 825 825 826 826 827 827 827 827 827 827 826 826 825 824 824 823 822 821 820 819 818 817 816 815 814 813 811 810 809 807 807 806 805 804 803 802 802 801 801 800 800 800 799 799 799 799 799 800 800 798
789 787 790 801 813 826 837 838 837 836 834 834 834 831 827 815 800 792 788 787 787 785 786 786 785 788 789 791 795 797 800 801 802 805 806 807 809 811 813 814 816 817 818 820 821 822 823 823 824 825 825 826 826 826 826 826 826 825 825 824 823 823 822 821 820 819 818 817 816 815 815 813 812 811 809 808 806 805 805 804 803 802 801 801 800 800 799 799 798 798 797 797 797 797 797 797 797
793 788 790 797 794 800 822 831 827 828 832 836 835 825 811 800 795 791 790 790 789 788 787 787 787 787 788 792 794 796 798 799 801 803 805 806 808 810 812 813 814 816 817 818 819 820 821 822 823 823 824 825 825 824 824 824 824 824 823 823 822 822 821 820 819 818 817 816 815 814 813 813 812 810 808 807 805 804 803 803 802 801 801 800 799 798 798 797 797 797 796 795 794 794 794 794 794
792 792 793 795 787 791 816 834 832 830 831 832 830 819 804 798 794 790 793 792 789 790 788 787 787 787 789 792 792 794 795 796 798 801 802 805 807 809 810 811 813 814 816 817 817 819 819 820 821 822 822 823 823 823 823 823 823 822 822 821 821 820 820 819 818 817 816 815 814 813 812 811 810 809 807 806 804 803 802 801 801 800 799 799 798 797 797 796 795 795 794 793 792 792 792 791 790
784 791 788 788 791 792 803 822 834 837 834 830 828 822 813 810 802 792 793 793 789 790 788 786 787 787 789 789 789 791 792 793 796 798 801 803 805 807 808 810 811 813 814 815 816 817 818 819 820 820 821 821 821 821 821 821 821 821 821 820 820 819 819 818 817 816 816 814 813 812 811 810 809 808 806 805 804 802 801 800 799 799 798 798 797 796 795 794 794 793 792 791 790 789 788 788 787
773 777 776 783 797 801 805 818 828 834 837 831 828 828 820 811 801 789 787 787 786 789 788 787 786 785 786 786 786 788 789 792 795 797 799 801 803 805 806 808 810 811 813 814 815 816 817 818 818 819 819 819 820 820 820 820 820 819 820 819 819 818 817 817 816 815 815 813 812 811 810 809 808 806 805 804 803 801 800 800 798 798 797 796 796 795 794 793 792 791 790 789 788 786 785 784 784
773 773 775 780 790 799 805 810 812 819 833 834 829 827 812 797 791 784 779 778 781 787 788 785 783 782 782 782 783 785 787 790 792 794 797 798 801 803 804 806 808 809 812 812 814 815 815 816 817 817 818 817 818 818 818 818 818 818 818 817 817 817 816 815 815 814 813 812 811 810 809 808 807 806 804 803 802 801 800 799 798 797 796 795 794 793 792 791 790 789 788 787 786 784 783 781 780
779 781 785 787 793 799 801 807 809 811 825 833 832 825 803 783 781 778 773 774 777 781 783 781 779 778 778 779 780 781 784 787 789 791 794 796 799 801 802 805 806 808 811 811 812 814 814 814 815 815 816 816 816 817 817 817 817 816 817 816 816 815 814 814 813 813 812 810 810 808 807 807 806 804 803 802 801 800 799 798 797 796 795 794 793 792 791 790 789 787 786 784 783 782 781 779 777
772 775 778 781 789 797 803 815 818 812 816 823 827 823 797 775 776 776 772 774 774 774 776 777 776 776 776 777 777 779 782 785 787 789 791 794 796 799 801 803 805 807 809 810 811 812 812 813 813 813 814 814 815 815 815 815 815 815 815 815 815 814 813 813 812 811 811 809 809 808 806 806 804 803 802 801 799 798 797 796 795 794 793 792 791 790 789 788 787 786 784 783 781 780 778 776 775